Weather History for Torrington, WY

Change the Weather History Date:

Saturday, November 24, 2012

  Actual Average Record
Temperature  
Mean Temperature 43 °F 32 °F  
Max Temperature 64 °F 45 °F 68 °F (2011)
Min Temperature 22 °F 19 °F 4 °F (1999)
Degree Days  
Heating Degree Days 22 33  
Month to date heating degree days 556 667  
Since 1 July heating degree days 1182 1377  
Cooling Degree Days 0 0  
Month to date cooling degree days 0 0  
Year to date cooling degree days 1021 678  
Moisture  
Dew Point 17 °F    
Average Humidity 41    
Maximum Humidity 68    
Minimum Humidity 14    
Precipitation  
Precipitation 0.00 in 0.02 in 0.07 in (2002)
Month to date precipitation 0.05 0.38  
Year to date precipitation 6.96 13.78  
Sea Level Pressure  
Sea Level Pressure 29.96 in    
Wind  
Wind Speed 9 mph (NW)    
Max Wind Speed 28 mph    
Max Gust Speed 36 mph    
Visibility 10 miles    
Events      
T = Trace of Precipitation, MM = Missing Value Source: NWS Daily Summary

Daily Weather History Graph

Daily Weather History Graph

Search for Another Location

Airport:

Trip Planner

Search our weather history database for the weather conditions in past years. The results will help you decide how hot, cold, wet, or windy it might be!

Date:

Astronomy

Nov. 24, 2012 Rise Set
Actual Time 6:58 AM MST 4:28 PM MST
Civil Twilight 6:27 AM MST 4:59 PM MST
Nautical Twilight 5:52 AM MST 5:33 PM MST
Astronomical Twilight 5:19 AM MST 6:07 PM MST
Moon 2:17 PM MST (11/24) 3:14 AM MST (11/24)
Length of Visible Light 10h 32m
Length of Day
9h 30m
Waxing Gibbous, 87% of the Moon is Illuminated
Nov 24
Waxing Gibbous
Nov 28
Full
Dec 6
Last Quarter
Dec 13
New
Dec 19
First Quarter

Hourly Weather History & Observations

Time (MST) Temp. Windchill Dew Point Humidity Pressure Visibility Wind Dir Wind Speed Gust Speed Precip Events Conditions
12:53 AM 24.1 °F 18.2 °F 15.1 °F 69% 30.14 in 10.0 mi ENE 4.6 mph - N/A   Clear
1:53 AM 26.1 °F 20.5 °F 15.1 °F 63% 30.10 in 10.0 mi ESE 4.6 mph - N/A   Clear
2:53 AM 26.1 °F 21.9 °F 15.1 °F 63% 30.09 in 10.0 mi North 3.5 mph - N/A   Clear
3:53 AM 28.9 °F - 16.0 °F 58% 30.07 in 10.0 mi Calm Calm - N/A   Clear
4:53 AM 30.9 °F 25.2 °F 17.1 °F 57% 30.06 in 10.0 mi SE 5.8 mph - N/A   Clear
5:53 AM 48.9 °F - 19.0 °F 31% 30.00 in 10.0 mi West 5.8 mph - N/A   Clear
6:53 AM 48.0 °F - 19.0 °F 32% 29.99 in 10.0 mi West 8.1 mph - N/A   Clear
7:53 AM 51.1 °F - 19.0 °F 28% 29.97 in 10.0 mi NW 9.2 mph - N/A   Clear
8:53 AM 53.1 °F - 21.9 °F 30% 29.97 in 10.0 mi Calm Calm - N/A   Clear
9:53 AM 61.0 °F - 16.0 °F 17% 29.93 in 10.0 mi West 15.0 mph 27.6 mph N/A   Clear
10:53 AM 61.0 °F - 15.1 °F 17% 29.92 in 10.0 mi WNW 17.3 mph 32.2 mph N/A   Clear
11:53 AM 62.1 °F - 15.1 °F 16% 29.89 in 10.0 mi WNW 18.4 mph 31.1 mph N/A   Clear
12:53 PM 61.0 °F - 12.9 °F 15% 29.88 in 10.0 mi West 20.7 mph 33.4 mph N/A   Clear
1:53 PM 62.1 °F - 14.0 °F 15% 29.88 in 10.0 mi West 18.4 mph 24.2 mph N/A   Clear
2:53 PM 60.1 °F - 14.0 °F 16% 29.88 in 10.0 mi West 12.7 mph 27.6 mph N/A   Clear
3:53 PM 57.0 °F - 15.1 °F 19% 29.89 in 10.0 mi West 8.1 mph - N/A   Clear
4:53 PM 54.0 °F - 16.0 °F 22% 29.89 in 10.0 mi NW 11.5 mph - N/A   Clear
5:53 PM 44.1 °F 39.5 °F 16.0 °F 32% 29.89 in 10.0 mi ENE 8.1 mph - N/A   Clear
6:53 PM 42.1 °F 34.5 °F 19.9 °F 41% 29.91 in 10.0 mi NNE 15.0 mph - N/A   Clear
7:53 PM 45.0 °F - 21.0 °F 39% 29.91 in 10.0 mi Calm Calm - N/A   Clear
8:53 PM 37.9 °F 34.4 °F 21.0 °F 51% 29.94 in 10.0 mi ESE 4.6 mph - N/A   Clear
9:53 PM 37.9 °F 32.7 °F 21.0 °F 51% 29.91 in 10.0 mi North 6.9 mph - N/A   Clear
10:53 PM 34.0 °F 29.8 °F 21.0 °F 59% 29.94 in 10.0 mi North 4.6 mph - N/A   Partly Cloudy
11:53 PM 32.0 °F 24.8 °F 19.9 °F 61% 29.95 in 10.0 mi NNE 8.1 mph - N/A   Partly Cloudy